Glens Falls, NY

11:13 AM EST on November 18, 2019 (GMT -0500)
Bennett Memorial

Weather History for KGFL - September, 2019

Change the Weather History Date:

Wednesday, September 18, 2019

  Actual Average Record
Temperature  
Mean Temperature 52 °F 58 °F  
Max Temperature 67 °F 70 °F 92 °F (1906)
Min Temperature 37 °F 46 °F 32 °F (1950)
Degree Days  
Heating Degree Days 13 8  
Month to date heating degree days 109 95  
Since 1 July heating degree days 137 161  
Cooling Degree Days 0 1  
Month to date cooling degree days 12 23  
Year to date cooling degree days 407 350  
Growing Degree Days 2 (Base 50)    
Moisture  
Dew Point 41 °F    
Average Humidity 69    
Maximum Humidity 100    
Minimum Humidity 37    
Precipitation  
Precipitation 0.00 in 0.12 in 2.29 in (2012)
Month to date precipitation 1.06 1.92  
Year to date precipitation 29.85 27.73  
Sea Level Pressure  
Sea Level Pressure 30.28 in    
Wind  
Wind Speed 4 mph (NE)    
Max Wind Speed 17 mph    
Max Gust Speed 23 mph    
Visibility 6 miles    
Events Fog    
T = Trace of Precipitation, MM = Missing Value Source: NWS Daily Summary

Daily Weather History Graph

Daily Weather History Graph

Search for Another Location

Airport or City:

Astronomy

Sep. 18, 2019 Rise Set
Actual Time 6:36 AM EDT 6:59 PM EDT
Civil Twilight 6:08 AM EDT 7:28 PM EDT
Nautical Twilight 5:34 AM EDT 8:01 PM EDT
Astronomical Twilight 5:00 AM EDT 8:36 PM EDT
Moon 9:25 PM EDT 10:43 AM EDT
Length of Visible Light 13h 19m
Length of Day
12h 22m
Waning Gibbous, 82% of the Moon is Illuminated
Sep 18
Waning Gibbous
Sep 21
Last Quarter
Sep 28
New
Oct 5
First Quarter
Oct 13
Full

Hourly Weather History & Observations

Time (EDT) Temp. Dew Point Humidity Pressure Visibility Wind Dir Wind Speed Gust Speed Precip Events Conditions
12:53 AM 46.9 °F 43.0 °F 86% 30.25 in 10.0 mi Calm Calm - N/A   Clear
1:27 AM 42.1 °F 42.1 °F 100% 30.24 in 1.5 mi Calm Calm - N/A   Clear
1:45 AM 43.0 °F 42.1 °F 97% 30.25 in 3.0 mi Calm Calm - N/A   Clear
1:53 AM 44.1 °F 41.0 °F 89% 30.26 in 10.0 mi Calm Calm - N/A   Clear
2:13 AM 43.0 °F 41.0 °F 93% 30.25 in 1.8 mi Calm Calm - N/A   Clear
2:33 AM 43.0 °F 39.9 °F 89% 30.25 in 3.0 mi Calm Calm - N/A   Clear
2:53 AM 41.0 °F 39.9 °F 96% 30.25 in 4.0 mi Calm Calm - N/A   Clear
2:56 AM 39.9 °F 39.0 °F 97% 30.24 in 1.8 mi Calm Calm - N/A   Clear
3:08 AM 41.0 °F 39.0 °F 93% 30.24 in 3.0 mi Calm Calm - N/A   Clear
3:19 AM 39.9 °F 39.9 °F 100% 30.24 in 1.5 mi Calm Calm - N/A   Clear
3:35 AM 41.0 °F 39.0 °F 93% 30.24 in 3.0 mi Calm Calm - N/A   Clear
3:43 AM 41.0 °F 39.0 °F 93% 30.24 in 1.8 mi Calm Calm - N/A   Clear
3:53 AM 39.9 °F 39.0 °F 97% 30.25 in 0.5 mi Calm Calm - N/A Fog Fog
4:12 AM 39.9 °F 37.9 °F 93% 30.24 in 2.5 mi Calm Calm - N/A   Clear
4:24 AM 41.0 °F 39.0 °F 93% 30.25 in 0.8 mi Calm Calm - N/A   Clear
4:31 AM 39.9 °F 37.9 °F 93% 30.25 in 2.0 mi Calm Calm - N/A   Clear
4:39 AM 41.0 °F 37.9 °F 89% 30.25 in 10.0 mi Calm Calm - N/A   Clear
4:53 AM 39.9 °F 39.0 °F 97% 30.26 in 10.0 mi Calm Calm - N/A   Clear
5:00 AM 39.0 °F 37.9 °F 96% 30.25 in 1.8 mi Calm Calm - N/A   Clear
5:53 AM 39.0 °F 37.9 °F 96% 30.27 in 0.5 mi Calm Calm - N/A Fog Fog
6:10 AM 39.0 °F 37.9 °F 96% 30.27 in 2.5 mi Calm Calm - N/A   Clear
6:17 AM 39.0 °F 39.0 °F 100% 30.27 in 5.0 mi Calm Calm - N/A   Clear
6:53 AM 41.0 °F 39.0 °F 93% 30.29 in 10.0 mi Calm Calm - N/A   Clear
7:53 AM 46.9 °F 46.0 °F 97% 30.31 in 10.0 mi ENE 3.5 mph - N/A   Clear
8:53 AM 54.0 °F 48.9 °F 83% 30.32 in 10.0 mi East 3.5 mph - N/A   Clear
9:53 AM 55.9 °F 50.0 °F 80% 30.32 in 10.0 mi ENE 5.8 mph - N/A   Clear
10:53 AM 59.0 °F 48.0 °F 67% 30.32 in 10.0 mi East 8.1 mph - N/A   Scattered Clouds
11:53 AM 63.0 °F 44.1 °F 50% 30.31 in 10.0 mi NNE 11.5 mph - N/A   Mostly Cloudy
12:53 PM 64.0 °F 41.0 °F 43% 30.31 in 10.0 mi NE 13.8 mph 23.0 mph N/A   Partly Cloudy
1:53 PM 64.9 °F 42.1 °F 43% 30.30 in 10.0 mi NE 8.1 mph - N/A   Clear
2:53 PM 64.9 °F 42.1 °F 43% 30.30 in 10.0 mi ENE 8.1 mph - N/A   Clear
3:53 PM 66.0 °F 41.0 °F 40% 30.30 in 10.0 mi Variable 6.9 mph - N/A   Clear
4:53 PM 66.0 °F 39.9 °F 38% 30.30 in 10.0 mi NE 4.6 mph - N/A   Clear
5:53 PM 64.9 °F 39.9 °F 40% 30.29 in 10.0 mi ENE 6.9 mph - N/A   Clear
6:53 PM 57.0 °F 44.1 °F 62% 30.30 in 10.0 mi North 4.6 mph - N/A   Clear
7:53 PM 48.9 °F 42.1 °F 77% 30.32 in 10.0 mi Calm Calm - N/A   Clear
8:53 PM 46.0 °F 41.0 °F 83% 30.33 in 10.0 mi Calm Calm - N/A   Clear
9:53 PM 43.0 °F 39.9 °F 89% 30.33 in 10.0 mi Calm Calm - N/A   Clear
10:53 PM 43.0 °F 39.9 °F 89% 30.34 in 10.0 mi Calm Calm - N/A   Clear
11:40 PM 39.0 °F 37.9 °F 96% 30.34 in 1.8 mi Calm Calm - N/A   Clear
11:53 PM 39.0 °F 37.9 °F 96% 30.35 in 2.5 mi Calm Calm - N/A   Clear